This is the latest recevied weather packets stored in our database for station/object JS1SZZ-13. If no packets are shown the sender has not sent any weather packets the latest 10 day(s).
| Time | Temp. | Humidity | Pressure | Rain* | Wind** | Luminosity | Snow |
|---|---|---|---|---|---|---|---|
| 1777921499 | 3.33° C | 85% | 1014.3 hPa | 0 mm | - | - | - |
| 1777920600 | 3.89° C | 83% | 1014.1 hPa | 0 mm | - | - | - |
| 1777919700 | 3.89° C | 82% | 1013.8 hPa | 0 mm | - | - | - |
| 1777918799 | 4.44° C | 80% | 1013.4 hPa | 0 mm | - | - | - |
| 1777917900 | 4.44° C | 80% | 1013.2 hPa | 0 mm | - | - | - |
| 1777916999 | 5° C | 78% | 1012.9 hPa | 0 mm | - | - | - |
| 1777916101 | 5° C | 77% | 1012.7 hPa | 0 mm | - | - | - |
| 1777915200 | 5.56° C | 74% | 1012.6 hPa | 0 mm | - | - | - |
| 1777914300 | 6.11° C | 71% | 1012.6 hPa | 0 mm | - | - | - |
| 1777913401 | 6.11° C | 70% | 1012.2 hPa | 0 mm | - | - | - |
| 1777912500 | 6.67° C | 71% | 1012.1 hPa | 0 mm | - | - | - |
| 1777911600 | 7.22° C | 67% | 1011.6 hPa | 0 mm | - | - | - |
| 1777910701 | 7.78° C | 62% | 1011.3 hPa | 0 mm | - | - | - |
| 1777909800 | 8.33° C | 57% | 1011.2 hPa | 0 mm | - | - | - |
| 1777908900 | 8.33° C | 55% | 1010.9 hPa | 0 mm | - | - | - |
| 1777907999 | 7.78° C | 63% | 1010.7 hPa | 0 mm | - | - | - |
| 1777907100 | 8.33° C | 60% | 1010.6 hPa | 0 mm | - | - | - |
| 1777906201 | 9.44° C | 52% | 1010.3 hPa | 0 mm | - | - | - |
| 1777905300 | 10° C | 49% | 1010.1 hPa | 0 mm | - | - | - |
| 1777904400 | 10° C | 48% | 1009.8 hPa | 0 mm | - | - | - |
| 1777903499 | 10.56° C | 48% | 1009.4 hPa | 0 mm | - | - | - |
| 1777902601 | 11.11° C | 47% | 1009.1 hPa | 0 mm | - | - | - |
| 1777901700 | 11.67° C | 47% | 1008.7 hPa | 0 mm | - | - | - |
| 1777900799 | 11.67° C | 44% | 1008.3 hPa | 0 mm | - | - | - |
| 1777899901 | 11.67° C | 45% | 1007.9 hPa | 0 mm | - | - | - |
* Rain latest hour (hover to see other rain measurements)
** Current wind speed in m/s (hover to see current wind gust speed)